Location: *
(45.9500°N, 9.0833°E)
Time: 15:57:50
(UTC+00:00)

SeaSat 1 - Pass Details

Date: 03 March 2021
Orbit: 744 x 747 km, 108.0° (Epoch: 17 April)

Event Time Altitude Azimuth Distance (km) Brightness Sun altitude
Rises 17:55:55 0° 34° (NE) 3,200 5.4 -8.2°
Reaches altitude 10° 17:58:20 10° 42° (NE) 2,272 4.6 -8.7°
Maximum altitude 18:02:57 39° 111° (ESE) 1,113 2.9 -9.5°
Drops below altitude 10° 18:07:32 10° 180° (S) 2,258 4.9 -10.3°
Sets 18:09:56 0° 188° (S) 3,178 5.8 -10.7°
